034  
ASUS41 KBOX 301010  
RWRBOX  
 
REGIONAL WEATHER ROUNDUP  
NATIONAL WEATHER SERVICE BOSTON/NORTON MA  
600 AM EDT THU MAY 30 2024  
 
NOTE: "FAIR" INDICATES FEW OR NO CLOUDS BELOW 12,000 FEET WITH NO  
SIGNIFICANT WEATHER AND/OR S TO VISIBILITY
.  
 
MAZALL-301100-  
EASTERN MASSACHUSETTS  
 
CITY SKY/WX TMP DP RH WIND PRES REMARKS
 
BOSTON LGT RAIN 58 55 90 N9 29.88F  
BEVERLY RAIN 56 51 84 NE8 29.89R  
LAWRENCE LGT RAIN 57 47 69 NE12 29.92R  
BEDFORD RAIN 54 50 86 N8 29.89R  
NORWOOD LGT RAIN 61 58 90 NE6 29.87S  
MARSHFIELD CLOUDY 59 57 94 VRB6 29.86S  
PLYMOUTH LGT RAIN 59 58 96 NE8 29.85S  
TAUNTON LGT RAIN 62 58 86 CALM 29.85S  
NEW BEDFORD CLOUDY 61 60 97 NE5 29.83F  

 
 
MAZALL-301100-  
CAPE COD AND THE ISLANDS  
 
CITY SKY/WX TMP DP RH WIND PRES REMARKS
 
FALMOUTH CLOUDY 59 59 100 VRB3 29.86S  
HYANNIS CLOUDY 60 58 92 SE3 29.84F  
CHATHAM MOCLDY 58 57 97 CALM 29.86F  
PROVINCETOWN CLEAR 58 58 100 NE3 29.87F  
NANTUCKET PTCLDY 55 55 100 SW5 29.86F  
MARTHAS VNYRD CLOUDY 59 59 100 S3 29.86R  

 
 
MAZALL-301100-  
CENTRAL AND WESTERN MASSACHUSETTS  
 
CITY SKY/WX TMP DP RH WIND PRES REMARKS
 
WORCESTER RAIN 52 48 86 N9 29.90R  
FITCHBURG LGT RAIN 54 47 77 N8 29.93R  
ORANGE LGT RAIN 52 52 100 NW10 29.94R  
SPRINGFIELD RAIN 55 51 88 N12 29.90R  
WESTFIELD RAIN 53 51 93 NW9 29.94R  
NORTH ADAMS LGT RAIN 54 52 93 VRB5 29.97R  
PITTSFIELD RAIN 51 50 96 CALM 29.96R FOG  

 
 
RIZALL-301100-  
RHODE ISLAND  
 
CITY SKY/WX TMP DP RH WIND PRES REMARKS
 
PROVIDENCE LGT RAIN 60 60 100 NW6 29.86R  
NEWPORT LGT RAIN 59 58 96 NW3 29.85R  
BLOCK ISLAND LGT RAIN 57 57 100 W3 29.87R  
SMITHFIELD RAIN 59 59 100 N10 29.86S  
WESTERLY CLOUDY 60 57 89 CALM 29.87R  

 
 
CTZALL-301100-  
CONNECTICUT  
 
CITY SKY/WX TMP DP RH WIND PRES REMARKS
 
BRADLEY INTL LGT RAIN 56 51 84 N12 29.92R  
HARTFORD LGT RAIN 56 52 86 N13 29.90R  
PLAINVILLE LGT RAIN 55 54 97 N8 29.91R FOG  
BRIDGEPORT RAIN 60 58 92 NW5 29.89R  
DANBURY LGT RAIN 56 52 86 VRB6G17 29.93R  
GROTON CLOUDY 61 60 97 CALM 29.86R  
NEW HAVEN LGT RAIN 61 59 93 N3 29.89R  
CHESTER LGT RAIN 59 59 100 VRB3 29.88R  
MERIDEN RAIN 57 52 83 N5 29.90R  
WILLIMANTIC LGT RAIN 57 55 93 N9 29.88S  
OXFORD RAIN 54 53 97 N12 29.92R FOG  

 
 
MEZ002-015-021-024-NHZ003-005-008-011-012-014-VTZ005-008-301100-  
NORTHERN NEW ENGLAND  
 
CITY SKY/WX TMP DP RH WIND PRES REMARKS
 
PORTLAND ME MOCLDY 55 44 66 NE9 29.94S  
BANGOR ME PTCLDY 48 44 86 CALM 29.96S  
CONCORD NH CLOUDY 55 48 77 NW6 29.93S  
MANCHESTER NH LGT RAIN 57 47 69 NW5 29.91R  
NASHUA NH CLOUDY 57 49 74 NW6 29.93R  
PORTSMOUTH NH CLOUDY 60 42 52 NE8 29.91R  
JAFFREY NH CLOUDY 53 49 86 CALM 29.93S  
KEENE NH LGT RAIN 52 51 97 CALM 29.94R  
BURLINGTON VT MOCLDY 46 42 86 CALM 30.01R  
MT. WASHINGTON MOCLDY 34 28 80 W14 N/A WCI 24  

 
 
NYZ052-076-301100-  
EASTERN NEW YORK  
 
CITY SKY/WX TMP DP RH WIND PRES REMARKS
 
ALBANY CLOUDY 56 45 66 NW8 29.98R  
NEW YORK CITY LGT RAIN 58 52 80 NW12G25 29.92R  

 
 
ANZALL-301100-  
MARINE OBSERVATIONS  
 
STATION/POSITION TIME TEMP WIND PRES VSBY WAVE
 
AIR SEA DIR/SP/G HT/PER  
(UTC) (F) (DEG/KT/KT) (MB) (MI) (FT/S)  
BOSTON BUOY 0940 58 58 70/ 12/ 14 1011.8F  
BUZZARDS BAY 0900 60 280/ 10/ 11 1010.9F  
NANTUCKET SOUND 0950 60 61 170/ 6/ 8 1010.4F 1/ 8  
MASS BAY-STELLWA 0804 60 59 50/ 12/ 16 1011.8F 1 7/8 3/ 8  
ISLE OF SHOALS 0900 57 50/ 15/ 16 1011.8R  
S OF BLOCK IS 0956 59 N/A 3/ 8  

 
   
.....................KEY......................
 
 
SKY/WX - SKY CONDITION/PRESENT WEATHER  
TMP - TEMPERATURE IN FAHRENHEIT  
DWPT - DEWPOINT IN FAHRENHEIT  
RH - RELATIVE HUMIDITY IN PERCENT  
WIND - DIRECTION AND SPEED IN MPH  
PRES - MEAN SEA LEVEL PRESSURE IN INCHES OF HG  
WCI - WIND CHILL INDEX  
VSB - VISIBILITY IN MILES  
HX - HEAT INDEX  
TC - TEMPERATURE IN CELSIUS  
VRB - VARIABLE WIND DIRECTION  
N/A - NOT AVAILABLE  
 
 
CLICK HERE TO GO TO PREVIOUS BULLETINS.

The Nexlab MA Page
The Nexlab RI Page
The Nexlab NH Page
The Nexlab CT Page Main Text Page